Temp
20 17 16 18 18 19 20 20 20 21 22 22 21 20 21 22 22 22 21 21 21 21 23 26 27 28 29 27 25 24 24 23 23 22 21 20 20 19 19 19 19 19 18 18
18 17 18 20 20 20 20 19 19 20 23 22 21 21 21 21 22 24 23 22 23 23 23 23 25 26 27 26 25 24 24 23 22 22 21 20 20 19 19 19 19 18 18 18
17 19 21 21 20 20 20 19 19 20 21 21 20 20 20 21 22 23 24 24 24 22 23 23 22 23 24 24 24 24 23 23 22 22 21 20 19 19 18 18 17 17 17 17
18 20 21 21 20 21 19 21 21 21 19 18 21 18 20 20 21 23 23 23 23 22 22 22 23 20 22 22 23 23 23 22 22 21 20 19 18 17 18 18 18 17 17 17
18 19 20 20 21 22 20 21 20 21 19 18 19 17 20 21 21 22 23 21 20 19 20 20 19 21 21 22 22 22 22 22 21 21 20 20 19 19 19 18 18 17 17 17
18 20 20 20 21 21 21 21 19 19 17 16 19 17 19 18 21 24 21 20 20 20 19 19 18 18 19 21 21 21 21 20 20 20 19 18 18 18 18 18 17 17 17 17
16 19 20 18 18 18 17 18 15 15 15 17 18 17 19 20 20 23 21 19 19 19 18 17 16 17 17 18 19 19 19 18 18 18 18 18 18 18 18 17 17 16 15 15
12 14 15 16 15 14 15 17 16 15 13 15 18 16 19 21 21 22 21 18 18 19 17 16 16 15 16 16 18 18 17 17 17 17 16 16 17 17 17 16 16 15 15 15
12 12 15 14 15 15 15 14 15 15 14 14 15 17 19 16 16 19 18 17 17 17 16 15 16 15 15 16 17 16 16 15 15 15 15 15 15 15 15 15 15 15 15 15
11 9 13 13 14 15 13 14 13 13 13 14 15 17 15 11 10 11 14 15 15 15 15 15 15 14 15 15 16 17 15 15 15 15 14 14 15 16 16 16 15 14 14 14
11 10 10 11 11 11 11 11 12 12 12 12 14 14 13 11 11 11 9 13 13 14 14 15 14 14 14 15 15 15 15 15 14 14 13 14 14 14 15 14 14 14 14 13
11 8 7 8 10 11 12 11 10 8 10 10 11 13 11 10 11 11 11 11 13 13 14 14 14 14 14 14 14 14 14 14 14 14 13 13 13 13 13 13 12 12 12 12
10 6 3 7 8 10 8 9 10 9 8 10 10 12 13 12 11 11 11 12 12 14 15 15 14 14 14 14 14 14 14 13 13 13 13 12 12 12 11 11 11 10 11 11
10 6 4 4 6 6 6 8 9 9 8 8 8 8 11 11 11 10 10 11 11 13 15 15 14 15 14 14 14 14 13 13 13 12 12 12 11 11 10 10 10 10 10 11
8 5 6 7 8 8 8 8 9 7 8 8 9 9 9 11 10 10 9 10 11 12 14 15 15 15 15 14 14 14 14 13 13 12 12 11 11 11 10 10 10 10 11 11
7 5 7 5 7 8 7 8 9 9 9 9 10 10 11 12 9 10 10 10 12 12 13 14 14 14 15 14 14 14 14 13 13 12 12 11 10 10 10 10 10 10 10 10
5 5 3 4 6 6 5 8 8 9 10 10 8 10 12 11 10 11 10 10 12 12 12 13 13 14 15 15 14 13 13 13 12 12 11 10 10 9 9 10 10 10 10 10
4 4 5 3 5 3 7 9 10 9 10 11 11 11 12 13 12 10 10 10 12 11 11 12 12 13 15 15 14 13 13 13 12 11 10 10 9 9 9 9 9 9 9 9
6 4 4 4 3 6 7 9 10 10 10 11 10 12 12 12 9 10 12 11 12 11 10 10 13 15 14 14 14 13 12 12 11 11 10 10 9 9 9 9 9 9 9 9
5 7 5 4 5 5 9 10 11 10 8 8 10 11 10 10 9 11 12 14 14 12 11 11 13 14 15 14 14 13 12 12 11 11 10 10 9 9 9 8 8 8 8 8
3 1 2 4 5 6 8 9 10 7 7 8 10 10 10 10 11 12 13 14 14 14 14 13 13 14 15 14 14 13 12 11 11 10 10 9 9 9 8 8 8 8 7 7
5 2 0 1 3 6 9 10 9 10 9 10 9 10 10 11 11 12 12 12 13 12 14 14 13 13 14 14 13 12 12 11 11 10 9 9 9 8 8 8 7 7 7 7
4 4 3 4 6 8 8 9 10 9 10 10 10 10 11 12 12 13 12 12 12 13 13 14 13 12 13 14 13 12 11 10 10 9 8 8 8 8 8 8 8 7 7 7
5 7 6 6 7 8 8 9 9 10 11 9 11 12 11 12 12 11 11 11 11 13 13 13 13 12 12 13 13 12 11 10 9 8 8 7 8 8 8 8 8 8 7 6
4 6 6 5 6 7 8 9 9 10 10 10 10 12 13 13 12 12 11 11 11 12 13 13 13 12 12 13 12 11 10 10 9 8 8 8 8 8 8 9 9 8 8 9
4 5 4 4 7 6 7 9 9 10 10 10 10 10 11 12 11 13 11 11 11 12 12 12 12 12 12 12 10 10 10 10 9 9 9 9 9 9 9 9 9 9 9 9
Height
775 789 796 789 788 783 782 783 783 770 758 761 765 763 755 743 738 737 734 734 731 728 719 718 719 720 724 729 735 742 749 757 760 764 769 774 776 779 781 783 785 788 790 792
785 790 779 772 773 776 779 783 782 768 755 761 761 753 747 740 736 726 725 725 721 719 716 714 714 718 718 722 728 738 745 752 756 761 765 771 775 778 780 782 784 785 788 790
786 774 763 769 771 773 771 778 775 775 762 758 765 754 749 736 729 720 714 709 709 711 710 709 710 713 714 717 723 730 739 746 754 759 765 770 774 776 779 780 782 783 785 788
774 763 763 762 767 766 777 762 763 765 773 784 759 776 750 745 733 720 713 707 703 706 705 705 705 708 711 714 719 726 733 742 750 756 762 766 770 773 776 777 779 781 782 785
775 768 767 768 762 755 763 754 760 758 770 773 765 786 741 738 736 721 709 707 710 707 705 704 704 703 710 714 720 727 734 740 745 753 760 765 769 772 773 775 778 780 781 783
769 760 762 763 754 753 749 755 759 760 771 787 760 780 749 751 728 714 712 711 709 706 704 705 708 709 710 717 723 729 735 742 747 753 758 763 767 770 771 773 777 779 779 781
780 770 762 767 768 763 768 769 792 791 790 775 754 771 746 729 720 711 712 712 709 707 707 708 712 713 718 721 726 732 737 745 749 755 758 763 766 769 770 773 775 777 779 781
805 794 786 786 791 794 784 777 788 793 795 781 754 767 743 721 715 708 707 711 712 711 712 715 714 717 721 725 728 734 740 746 750 754 758 762 765 767 769 772 774 776 778 779
809 800 789 791 792 787 784 792 790 784 785 783 770 751 736 740 738 719 716 717 719 717 717 720 721 720 724 728 732 736 742 747 752 756 759 763 765 768 769 773 775 777 778 779
814 824 798 799 795 791 805 798 794 791 787 775 761 754 763 774 767 763 739 734 726 724 724 721 724 727 727 732 734 739 745 749 753 757 761 765 766 769 770 773 775 776 778 779
815 819 802 805 808 810 809 804 800 798 798 783 769 765 773 779 772 766 761 744 744 735 727 727 731 725 729 735 736 742 747 751 755 759 763 764 766 769 771 773 776 777 778 779
815 826 831 819 810 803 803 805 805 820 803 799 785 766 773 775 768 760 756 757 741 743 734 729 728 729 733 734 739 744 749 753 756 759 763 764 767 770 772 774 776 777 778 778
820 834 858 826 815 808 817 812 811 817 819 796 791 766 762 762 759 763 761 755 748 744 737 732 730 734 735 736 741 746 750 753 756 760 763 765 768 771 774 775 776 777 776 777
820 832 847 853 836 833 828 816 811 810 812 811 806 795 769 768 765 763 760 754 752 746 735 730 732 734 735 738 741 746 750 753 756 760 764 766 769 772 774 776 777 777 776 776
824 835 831 823 817 815 813 812 806 811 804 804 791 786 778 768 766 763 763 759 755 746 737 730 732 733 733 737 742 747 750 753 756 761 764 766 769 772 774 776 777 778 776 775
824 831 823 827 818 815 811 802 796 793 791 789 781 775 768 759 764 764 755 757 751 747 738 728 730 730 732 736 740 745 749 753 756 760 763 767 770 773 774 776 778 778 777 778
830 830 841 833 822 820 818 792 787 782 777 779 782 768 758 757 757 755 755 757 748 751 743 735 730 727 729 735 739 744 747 752 756 760 765 768 770 773 775 778 779 779 780 782
827 831 829 837 826 841 792 778 775 775 769 765 761 755 748 742 743 750 751 747 745 747 744 740 735 731 730 733 739 742 746 750 756 760 765 768 771 774 777 779 781 781 783 785
812 825 832 832 835 804 787 772 769 769 761 756 757 744 738 733 746 748 745 747 744 747 745 742 736 732 731 733 737 743 746 749 756 761 765 768 772 775 778 781 783 783 787 790
808 807 821 823 815 813 776 770 764 762 763 761 754 737 736 738 752 741 739 739 740 745 744 740 736 731 728 734 736 742 746 749 756 761 765 769 772 776 779 783 785 787 789 792
822 830 831 815 808 798 778 775 764 778 776 763 755 743 736 740 738 737 737 737 737 732 732 733 730 729 725 730 735 741 745 749 755 761 765 769 774 778 781 785 787 789 792 796
811 830 837 830 821 801 774 769 773 766 762 760 755 744 742 740 741 739 739 738 733 729 729 728 727 726 724 728 734 740 745 749 754 760 766 770 775 780 784 787 791 794 797 799
808 800 809 804 790 774 773 771 765 763 759 760 755 749 743 743 743 741 741 740 740 738 733 732 730 729 730 732 734 740 745 749 755 761 767 772 777 782 786 789 794 797 801 802
793 786 789 791 778 776 771 766 762 757 754 755 752 749 747 746 744 744 743 745 743 741 738 737 733 733 733 734 737 739 744 750 755 761 768 774 778 784 789 792 796 799 803 805
795 788 787 786 778 772 767 763 761 757 753 753 750 745 744 743 743 740 743 747 747 744 739 739 736 736 735 734 738 741 745 750 756 762 769 776 781 786 791 795 798 801 804 805
785 782 789 787 772 772 767 759 758 756 754 751 749 745 742 743 744 744 743 743 743 742 742 741 739 737 737 737 739 743 746 750 755 763 771 777 782 787 792 796 800 805 808 811
Wind_Speed
4 3 7 11 8 8 8 13 14 9 6 5 5 8 10 10 7 9 9 9 10 10 10 19 18 31 28 29 37 37 36 35 31 27 24 21 20 17 14 15 13 11 9 12
4 9 10 12 11 12 10 9 9 9 5 9 12 20 9 8 9 14 10 10 12 10 8 11 14 28 32 32 35 39 35 33 32 30 27 20 19 18 18 16 14 10 13 9
9 9 8 13 13 13 10 6 9 11 4 3 7 19 12 8 9 12 15 18 14 12 11 9 8 23 32 38 43 41 37 32 29 26 21 14 17 12 15 15 14 11 11 15
8 11 11 15 9 7 8 7 10 5 4 7 5 10 14 9 14 16 11 9 8 5 2 3 6 10 24 31 42 41 37 32 28 24 22 21 19 18 16 14 9 11 12 14
6 8 7 6 5 6 9 4 10 6 5 5 3 2 12 5 8 10 10 4 5 6 6 7 3 16 20 32 36 35 31 29 27 24 19 16 12 11 9 10 9 7 9 13
8 6 5 5 9 7 7 5 5 3 3 6 7 6 20 5 9 3 3 5 5 6 7 7 12 19 24 27 29 29 27 22 21 20 14 12 12 11 11 14 14 10 10 13
8 3 4 12 5 8 14 4 2 3 2 11 6 7 15 10 9 6 7 6 5 5 6 8 9 13 20 26 27 27 26 21 18 15 13 11 12 11 13 15 15 14 14 12
5 6 8 13 11 7 9 4 2 6 3 4 3 6 7 9 8 3 4 7 5 6 7 7 10 12 17 23 24 23 22 19 15 14 13 11 10 10 11 13 12 9 7 8
5 5 3 18 9 6 7 5 15 6 6 4 4 7 23 22 20 8 7 6 5 6 7 8 8 15 19 23 23 23 21 21 19 17 14 11 11 11 11 9 9 7 7 7
5 7 5 11 11 9 12 11 5 4 5 6 6 6 0 15 18 21 16 11 2 4 6 8 9 13 18 22 19 14 16 16 13 11 11 12 12 10 11 10 9 8 10 10
3 4 6 11 7 15 7 5 4 2 5 4 4 2 4 6 11 16 18 11 8 4 6 5 7 16 18 20 21 16 16 17 16 16 16 14 16 14 13 12 9 6 5 4
2 2 5 6 8 14 13 12 1 2 5 5 2 2 1 5 11 15 17 20 10 8 6 5 9 15 16 18 19 17 19 19 20 19 17 16 13 9 10 9 7 5 4 5
2 1 4 9 5 5 4 6 6 8 4 6 3 2 9 12 15 15 14 17 17 12 8 5 10 9 12 16 18 17 16 21 19 17 13 14 12 11 9 7 6 4 3 4
4 5 6 5 7 8 14 11 8 9 8 9 10 16 16 16 12 12 14 17 21 19 8 7 8 9 15 15 16 15 20 18 17 17 15 15 12 10 9 8 7 5 5 6
5 5 6 10 10 14 16 18 18 13 12 11 15 15 14 14 8 7 8 12 18 18 12 5 7 9 14 17 18 19 20 17 19 21 18 14 13 11 9 9 9 7 9 9
2 4 4 5 8 12 16 18 20 19 16 15 14 17 11 13 5 7 4 12 14 15 17 6 6 8 13 18 20 22 21 18 21 17 15 14 14 12 12 12 11 13 14 13
3 1 3 8 7 9 12 15 15 17 16 12 12 14 14 10 10 10 4 7 8 12 14 11 6 6 12 21 24 22 24 21 19 18 16 15 13 13 14 14 15 18 19 20
5 3 2 5 2 4 8 8 11 14 18 18 18 14 16 17 12 6 5 3 4 8 13 9 7 6 5 21 20 25 25 24 20 18 17 14 15 15 16 17 19 23 22 24
13 4 3 3 3 10 9 8 7 11 15 8 13 19 15 6 8 5 8 7 3 1 9 13 18 10 9 20 23 23 21 26 22 20 18 19 17 18 19 20 20 24 25 25
6 6 5 2 3 4 3 12 15 6 9 20 21 15 8 6 3 3 9 4 3 11 10 11 14 16 6 18 27 23 21 25 20 21 21 20 19 20 22 21 22 24 26 26
2 1 6 7 5 6 5 7 5 5 5 17 18 17 6 1 2 5 5 2 4 7 2 6 11 12 12 22 27 22 23 22 24 24 22 20 21 22 24 24 26 28 29 29
3 2 3 0 2 5 0 8 6 5 2 9 15 3 6 6 6 6 5 5 6 9 12 11 9 13 6 26 27 23 22 27 28 25 23 22 24 25 27 27 25 26 26 27
3 6 3 5 4 7 8 5 9 5 3 5 9 7 5 4 3 3 5 6 5 7 14 9 7 4 6 19 23 23 24 29 29 27 25 25 26 27 28 28 22 21 21 26
4 1 2 2 4 6 8 7 8 9 6 4 7 3 5 3 3 4 6 5 5 9 11 14 5 4 4 9 19 26 31 30 30 28 27 25 28 25 24 25 20 21 21 21
5 4 2 6 7 7 5 5 5 10 8 8 10 6 1 2 4 4 3 3 5 8 12 14 9 1 2 5 20 28 31 31 29 27 26 23 24 25 21 19 22 22 23 28
5 9 4 5 7 6 6 5 6 6 7 7 7 7 4 3 3 1 4 4 5 9 10 14 13 2 4 7 23 25 31 31 31 26 24 23 24 24 24 23 22 17 17 17
Wind_Direction
217 174 215 234 228 233 253 268 273 278 291 288 246 250 257 261 270 268 256 243 245 254 251 263 253 207 194 184 180 176 173 176 177 173 178 179 182 179 177 192 196 192 190 198
284 241 230 230 239 245 248 267 289 293 327 327 317 297 270 269 262 267 255 247 243 245 260 259 238 207 183 177 177 172 170 174 181 184 188 191 192 203 209 214 223 223 205 197
227 240 248 226 245 254 256 252 276 269 265 282 308 285 283 271 263 272 264 255 244 225 242 247 221 196 170 163 169 172 173 172 178 181 184 195 188 189 194 203 199 197 213 203
250 247 244 265 263 221 260 232 264 279 333 279 157 290 283 278 276 282 266 265 234 120 331 266 221 171 178 165 168 171 169 172 174 174 168 164 165 166 183 178 203 229 223 202
256 323 321 325 278 265 262 255 260 232 253 321 184 256 289 303 278 267 279 179 92 78 59 28 56 169 170 158 160 161 160 163 168 175 187 184 188 197 199 196 192 177 193 203
261 297 281 301 308 299 300 331 329 269 140 259 249 173 276 244 237 218 70 124 104 80 71 70 81 94 115 142 143 146 143 153 163 174 173 183 185 190 190 187 177 164 171 171
322 299 69 20 6 351 13 46 338 297 179 239 175 200 236 270 265 209 177 159 125 95 81 108 103 105 101 110 125 128 131 131 142 155 163 166 174 169 161 160 158 159 157 159
352 331 11 33 37 325 302 279 221 276 243 284 291 230 249 234 222 195 140 148 141 119 109 109 122 108 107 113 124 127 127 129 138 148 151 161 166 152 138 149 155 165 199 203
351 277 359 46 10 330 326 34 303 253 236 239 241 307 313 359 353 280 132 133 162 140 134 126 113 116 112 117 120 115 127 127 130 129 131 130 140 144 132 132 144 149 158 172
65 297 26 4 340 36 356 310 336 338 265 232 221 233 210 358 355 346 2 344 103 116 121 125 121 118 111 123 126 140 127 128 131 140 144 145 134 136 141 157 150 143 144 152
68 186 282 7 8 331 332 303 318 253 250 278 270 172 30 343 8 358 1 349 337 1 108 122 128 120 119 126 128 145 150 147 148 157 144 140 131 135 139 138 136 146 175 190
49 248 288 321 301 274 272 285 266 195 309 286 286 252 63 329 352 0 357 353 341 307 319 82 127 125 132 124 128 145 150 152 144 141 136 128 131 131 126 137 141 156 187 206
31 343 332 325 341 33 9 352 326 268 234 260 292 225 2 2 355 353 335 346 343 301 267 148 125 131 142 135 148 162 153 143 141 136 142 124 120 127 127 134 140 142 173 213
244 202 161 225 250 276 296 297 302 284 274 274 271 291 306 326 329 327 334 349 334 315 269 169 142 157 146 147 160 161 152 152 147 141 142 134 133 133 130 121 121 117 122 117
161 215 237 256 271 285 294 297 294 275 262 263 286 263 278 284 285 296 316 343 325 321 285 209 171 174 154 151 145 146 151 148 149 144 141 133 136 139 134 110 111 123 106 95
270 272 289 295 302 295 294 283 278 277 277 278 273 274 241 260 198 259 313 319 328 314 327 220 194 168 166 163 158 154 153 148 147 139 133 137 134 133 120 118 124 114 105 109
235 183 44 276 303 312 290 268 256 262 263 269 274 277 286 247 209 221 261 302 344 324 312 1 255 213 149 170 160 158 152 154 149 139 146 144 142 134 127 130 129 118 115 116
217 124 183 279 311 251 245 282 269 261 266 267 270 273 267 259 223 164 196 286 286 320 310 334 332 291 194 154 162 154 149 147 146 145 151 147 149 138 134 135 129 120 120 114
207 152 228 212 198 274 293 277 2 296 278 275 287 268 268 233 121 223 199 227 158 352 280 301 308 316 239 154 156 154 146 140 145 150 149 151 151 142 138 137 130 125 123 115
131 180 189 181 243 267 273 326 314 287 285 354 338 287 181 127 149 235 192 224 200 165 220 266 298 319 297 165 155 151 146 138 143 150 148 157 153 148 141 140 134 129 124 113
129 233 182 222 246 266 261 296 325 15 316 322 332 311 114 163 137 133 147 26 2 326 355 295 328 319 300 169 156 151 146 143 148 153 154 153 153 151 144 138 134 127 118 112
211 183 213 347 188 270 304 309 342 252 226 311 328 330 38 51 42 53 44 23 43 336 348 346 9 358 137 155 153 151 146 147 152 155 155 152 152 149 144 139 132 124 120 115
273 185 198 187 205 267 313 291 308 253 237 275 322 314 130 124 6 21 36 16 40 356 342 349 39 53 101 156 152 146 146 150 149 150 149 148 150 149 146 137 134 128 129 125
286 227 196 304 263 271 292 308 326 290 258 256 297 282 57 65 33 52 42 19 1 8 357 351 35 45 56 152 159 149 152 154 149 143 144 145 147 147 145 140 141 141 139 136
217 332 269 270 284 296 278 292 292 319 345 336 331 266 197 325 329 356 30 27 351 347 359 350 359 346 148 143 150 152 155 156 144 143 145 146 148 148 148 150 158 161 163 163
189 237 212 240 267 246 258 268 277 305 302 306 306 295 268 225 260 321 311 322 346 344 343 333 356 257 163 133 149 155 161 161 148 145 151 154 153 149 155 151 147 156 160 170